Weather History for York, NE

Change the Weather History Date:

Wednesday, May 22, 2013

  Actual Average Record
Temperature  
Mean Temperature 55 °F -  
Max Temperature 62 °F 74 °F 92 °F (1966)
Min Temperature 48 °F 53 °F 33 °F (1963)
Degree Days  
Heating Degree Days 10    
Growing Degree Days 5 (Base 50)    
Moisture  
Dew Point 47 °F    
Average Humidity 80    
Maximum Humidity 93    
Minimum Humidity 63    
Precipitation  
Precipitation 0.00 in - - ()
Sea Level Pressure  
Sea Level Pressure 29.88 in    
Wind  
Wind Speed 14 mph (NNW)    
Max Wind Speed 24 mph    
Max Gust Speed 28 mph    
Visibility 10 miles    
Events      
Averages and records for this station are not official NWS values.
T = Trace of Precipitation, MM = Missing Value Source: NWS Daily Summary

Daily Weather History Graph

Daily Weather History Graph

Search for Another Location

Airport:

Trip Planner

Search our weather history database for the weather conditions in past years. The results will help you decide how hot, cold, wet, or windy it might be!

Date:

Astronomy

May. 22, 2013 Rise Set
Actual Time 6:06 AM CDT 8:48 PM CDT
Civil Twilight 5:34 AM CDT 9:20 PM CDT
Nautical Twilight 4:54 AM CDT 10:00 PM CDT
Astronomical Twilight 4:09 AM CDT 10:45 PM CDT
Moon 6:11 PM CDT 4:12 AM CDT
Length of Visible Light 15h 45m
Length of Day
14h 41m
Waxing Gibbous, 91% of the Moon is Illuminated
May 22
Waxing Gibbous
May 24
Full
May 31
Last Quarter
Jun 8
New
Jun 16
First Quarter

Hourly Weather History & Observations

Time (CDT) Temp. Dew Point Humidity Pressure Visibility Wind Dir Wind Speed Gust Speed Precip Events Conditions
12:15 AM 48.2 °F 44.6 °F 87% 29.78 in 10.0 mi NNW 16.1 mph - N/A   Clear
12:35 AM 48.2 °F 44.6 °F 87% 29.79 in 10.0 mi NNW 13.8 mph - N/A   Clear
12:55 AM 48.2 °F 44.6 °F 87% 29.80 in 10.0 mi NNW 10.4 mph - N/A   Partly Cloudy
1:15 AM 48.2 °F 44.6 °F 87% 29.81 in 10.0 mi NNW 11.5 mph - N/A   Mostly Cloudy
1:35 AM 48.2 °F 46.4 °F 93% 29.81 in 10.0 mi NNW 8.1 mph - N/A   Overcast
1:55 AM 48.2 °F 46.4 °F 93% 29.81 in 10.0 mi NNW 12.7 mph - N/A   Overcast
2:15 AM 48.2 °F 44.6 °F 87% 29.81 in 10.0 mi NNW 11.5 mph - N/A   Overcast
2:35 AM 48.2 °F 44.6 °F 87% 29.81 in 10.0 mi NNW 11.5 mph 19.6 mph N/A   Overcast
2:55 AM 48.2 °F 44.6 °F 87% 29.81 in 10.0 mi NNW 9.2 mph - N/A   Overcast
3:15 AM 48.2 °F 46.4 °F 93% 29.81 in 10.0 mi NNW 11.5 mph - N/A   Overcast
3:35 AM 48.2 °F 46.4 °F 93% 29.81 in 10.0 mi NNW 12.7 mph - N/A   Overcast
3:55 AM 48.2 °F 46.4 °F 93% 29.81 in 10.0 mi NW 12.7 mph - N/A   Overcast
4:15 AM 48.2 °F 46.4 °F 93% 29.81 in 10.0 mi NW 15.0 mph - N/A   Overcast
4:35 AM 48.2 °F 46.4 °F 93% 29.81 in 10.0 mi NW 15.0 mph 19.6 mph N/A   Overcast
4:55 AM 48.2 °F 44.6 °F 87% 29.80 in 10.0 mi NW 12.7 mph - N/A   Overcast
5:15 AM 48.2 °F 46.4 °F 93% 29.80 in 10.0 mi NW 12.7 mph - N/A   Overcast
5:35 AM 48.2 °F 46.4 °F 93% 29.80 in 10.0 mi NW 13.8 mph - N/A   Overcast
5:55 AM 48.2 °F 46.4 °F 93% 29.81 in 10.0 mi NW 12.7 mph - N/A   Overcast
6:15 AM 48.2 °F 46.4 °F 93% 29.81 in 10.0 mi NW 13.8 mph - N/A   Overcast
6:35 AM 48.2 °F 46.4 °F 93% 29.82 in 10.0 mi NW 15.0 mph - N/A   Overcast
6:55 AM 48.2 °F 46.4 °F 93% 29.82 in 10.0 mi WNW 15.0 mph - N/A   Overcast
7:15 AM 48.2 °F 46.4 °F 93% 29.82 in 10.0 mi NW 15.0 mph - N/A   Overcast
7:35 AM 48.2 °F 46.4 °F 93% 29.83 in 10.0 mi NW 19.6 mph - N/A   Overcast
7:55 AM 48.2 °F 46.4 °F 93% 29.83 in 10.0 mi NW 18.4 mph - N/A   Overcast
8:15 AM 50.0 °F 46.4 °F 87% 29.83 in 10.0 mi NW 21.9 mph - N/A   Overcast
8:35 AM 50.0 °F 46.4 °F 87% 29.83 in 10.0 mi NNW 19.6 mph - N/A   Overcast
8:55 AM 50.0 °F 46.4 °F 87% 29.84 in 10.0 mi NW 23.0 mph 26.5 mph N/A   Overcast
9:15 AM 51.8 °F 46.4 °F 82% 29.85 in 10.0 mi NNW 16.1 mph - N/A   Overcast
9:35 AM 53.6 °F 46.4 °F 77% 29.86 in 10.0 mi NW 16.1 mph - N/A   Overcast
9:55 AM 53.6 °F 46.4 °F 77% 29.86 in 10.0 mi NW 19.6 mph - N/A   Overcast
10:15 AM 53.6 °F 46.4 °F 77% 29.86 in 10.0 mi NW 18.4 mph 24.2 mph N/A   Overcast
10:35 AM 53.6 °F 46.4 °F 77% 29.87 in 10.0 mi NW 17.3 mph - N/A   Overcast
10:55 AM 53.6 °F 46.4 °F 77% 29.87 in 10.0 mi NW 16.1 mph - N/A   Overcast
11:15 AM 53.6 °F 46.4 °F 77% 29.87 in 10.0 mi NW 24.2 mph 27.6 mph N/A   Overcast
11:35 AM 53.6 °F 46.4 °F 77% 29.88 in 10.0 mi NW 19.6 mph - N/A   Overcast
11:55 AM 53.6 °F 46.4 °F 77% 29.89 in 10.0 mi NW 18.4 mph - N/A   Overcast
12:15 PM 55.4 °F 46.4 °F 72% 29.89 in 10.0 mi NW 19.6 mph 25.3 mph N/A   Overcast
12:35 PM 57.2 °F 48.2 °F 72% 29.88 in 10.0 mi NNW 20.7 mph 25.3 mph N/A   Overcast
12:55 PM 57.2 °F 48.2 °F 72% 29.88 in 10.0 mi NNW 16.1 mph 23.0 mph N/A   Overcast
1:15 PM 57.2 °F 48.2 °F 72% 29.88 in 10.0 mi NW 19.6 mph - N/A   Overcast
1:35 PM 57.2 °F 48.2 °F 72% 29.88 in 10.0 mi NNW 16.1 mph 19.6 mph N/A   Overcast
1:55 PM 59.0 °F 48.2 °F 67% 29.88 in 10.0 mi NNW 17.3 mph - N/A   Overcast
2:15 PM 59.0 °F 48.2 °F 67% 29.88 in 10.0 mi NNW 11.5 mph 21.9 mph N/A   Overcast
2:35 PM 59.0 °F 48.2 °F 67% 29.88 in 10.0 mi NNW 13.8 mph 24.2 mph N/A   Overcast
2:55 PM 59.0 °F 50.0 °F 72% 29.88 in 10.0 mi NNW 12.7 mph 20.7 mph N/A   Overcast
3:15 PM 60.8 °F 48.2 °F 63% 29.88 in 10.0 mi NNW 13.8 mph 17.3 mph N/A   Overcast
3:35 PM 62.6 °F 50.0 °F 63% 29.88 in 10.0 mi NNW 13.8 mph 19.6 mph N/A   Overcast
3:55 PM 62.6 °F 50.0 °F 63% 29.87 in 10.0 mi North 11.5 mph 19.6 mph N/A   Overcast
4:15 PM 62.6 °F 50.0 °F 63% 29.88 in 10.0 mi NNW 11.5 mph 17.3 mph N/A   Overcast
4:35 PM 60.8 °F 48.2 °F 63% 29.88 in 10.0 mi NNW 11.5 mph 18.4 mph N/A   Overcast
4:55 PM 59.0 °F 50.0 °F 72% 29.89 in 10.0 mi NNW 11.5 mph - N/A   Overcast
5:15 PM 59.0 °F 48.2 °F 67% 29.90 in 10.0 mi North 10.4 mph 20.7 mph N/A   Overcast
5:35 PM 59.0 °F 48.2 °F 67% 29.90 in 10.0 mi North 13.8 mph 17.3 mph N/A   Overcast
5:55 PM 59.0 °F 50.0 °F 72% 29.91 in 10.0 mi North 9.2 mph 19.6 mph N/A   Overcast
6:15 PM 59.0 °F 50.0 °F 72% 29.91 in 10.0 mi North 11.5 mph - N/A   Overcast
6:35 PM 59.0 °F 50.0 °F 72% 29.91 in 10.0 mi North 10.4 mph - N/A   Overcast
6:55 PM 59.0 °F 48.2 °F 67% 29.92 in 10.0 mi North 10.4 mph - N/A   Overcast
7:15 PM 59.0 °F 48.2 °F 67% 29.93 in 10.0 mi NNW 8.1 mph 16.1 mph N/A   Overcast
7:35 PM 57.2 °F 50.0 °F 77% 29.93 in 10.0 mi North 10.4 mph 17.3 mph N/A   Overcast
7:55 PM 57.2 °F 50.0 °F 77% 29.94 in 10.0 mi North 6.9 mph - N/A   Overcast
8:15 PM 55.4 °F 50.0 °F 82% 29.95 in 10.0 mi North 13.8 mph 23.0 mph N/A   Mostly Cloudy
8:35 PM 55.4 °F 50.0 °F 82% 29.96 in 10.0 mi North 10.4 mph 16.1 mph N/A   Overcast
8:55 PM 55.4 °F 50.0 °F 82% 29.97 in 10.0 mi North 11.5 mph 18.4 mph N/A   Overcast
9:15 PM 53.6 °F 50.0 °F 88% 29.98 in 10.0 mi North 10.4 mph 19.6 mph N/A   Overcast
9:35 PM 55.4 °F 48.2 °F 77% 29.99 in 10.0 mi North 10.4 mph - N/A   Overcast
9:55 PM 53.6 °F 48.2 °F 82% 30.00 in 10.0 mi North 9.2 mph - N/A   Overcast
10:15 PM 53.6 °F 48.2 °F 82% 30.01 in 10.0 mi North 10.4 mph - N/A   Overcast
10:35 PM 53.6 °F 48.2 °F 82% 30.02 in 10.0 mi North 10.4 mph 21.9 mph N/A   Overcast
10:55 PM 53.6 °F 48.2 °F 82% 30.03 in 10.0 mi NNW 10.4 mph - N/A   Overcast
11:15 PM 53.6 °F 48.2 °F 82% 30.04 in 10.0 mi NNW 9.2 mph - N/A   Overcast
11:35 PM 53.6 °F 48.2 °F 82% 30.04 in 10.0 mi NNW 9.2 mph - N/A   Overcast
11:55 PM 51.8 °F 48.2 °F 88% 30.04 in 10.0 mi NNW 9.2 mph - N/A   Overcast